Location: Kolin
(50.0330°N, 15.2000°E)
Time: 23:29:18
(UTC+02:00)

ISS - Visible Passes

Search period start: 15 July 2024 00:00
Search period end: 25 July 2024 00:00
Orbit: 410 x 424 km, 51.6° (Epoch: 15 July)

Date Brightness Start Highest point End Pass type
(mag) Time Alt. Az. Time Alt. Az. Time Alt. Az.
15 Jul -3.9 00:40:23 10° WNW 00:43:42 86° SSW 00:44:31 49° ESE visible
15 Jul -3.4 22:15:12 10° W 22:18:31 68° N 22:21:50 10° ENE visible
15 Jul -3.7 23:52:06 10° WNW 23:55:25 78° NNE 23:57:17 24° E visible
16 Jul -1.8 01:28:58 10° W 01:30:09 19° W 01:30:09 19° W visible
16 Jul -3.5 23:03:44 10° WNW 23:07:03 68° N 23:10:10 11° E visible
17 Jul -3.1 00:40:32 10° WNW 00:43:02 39° WSW 00:43:02 39° WSW visible
17 Jul -3.4 22:15:17 10° W 22:18:35 64° N 22:21:54 10° E visible
17 Jul -3.9 23:52:05 10° WNW 23:55:24 68° SSW 23:55:56 54° SSE visible
18 Jul -3.9 23:03:36 10° WNW 23:06:56 88° S 23:08:52 23° ESE visible
19 Jul -1.6 00:40:37 10° W 00:41:43 17° WSW 00:41:43 17° WSW visible
19 Jul -3.7 22:15:02 10° WNW 22:18:21 76° N 22:21:41 10° E visible
19 Jul -2.9 23:51:53 10° W 23:54:37 34° SW 23:54:37 34° SW visible
20 Jul -3.5 23:03:10 10° WNW 23:06:25 51° SSW 23:07:29 34° SSE visible
21 Jul -3.8 22:14:27 10° WNW 22:17:46 71° SSW 22:20:21 15° ESE visible
21 Jul -1.7 23:51:45 10° W 23:53:12 16° WSW 23:53:12 16° WSW visible
22 Jul -2.5 23:02:38 10° W 23:05:28 26° SW 23:06:01 25° SSW visible
23 Jul -3.0 22:13:39 10° W 22:16:46 38° SSW 22:18:50 18° SSE visible
24 Jul -1.5 23:02:32 10° WSW 23:04:04 13° SW 23:04:28 13° SW visible
